STARLINK-2389, 47808

Orbit data source: Space-Track

STARLINK-2389, 47808 is a payload satellite owned by SpaceX/Seattle (US) in LEO that was launched on Thu, 11 Mar 2021 UTC via an FALCON 9 launch vehicle from the Air Force Eastern Test Range (AFETR). Payload-class satellites include a variety of spacecraft equipped with specific instruments for various scientific and technological missions. These include communications satellites like Starlink; space stations such as the ISS; scientific satellites like the Hubble; Earth observation satellites from companies like Planet Labs, Umbra, and HawkEye 360; GPS; miniature CubeSats for education and research; and military/defense satellites.

Loading next visibility...
Identifier
47808, 2021-018X
Orbit
LEO
Country
Flag of USUS
Related business
Manufacturer
SpaceX/Seattle
Mission
Operational Commercial Communications
Bus & Motor
STARLINK, Unknown motor
Mass
260 kg wet, ~248 kg dry
Launch date (UTC)
2021-03-11 (5 years ago)
Launch vehicle
FALCON 9
Launch site
Air Force Eastern Test Range (AFETR)
Object type
Payload
Rocket body
Debris
Shape & HBR
Box + 1 Pan, 10.1 m
Radar Cross Section
13.562 m², Large (>1 m²)

Expand to show TLE details & history
Last TLE update: 17 hours ago

TLE from 17 hours ago
0 STARLINK-2389
1 47808U 21018X   26119.95134289  .00003303  00000-0  11818-3 0  9990
2 47808  53.1632   4.3404 0001407  88.9147 271.2015 15.31696086284639
Epoch: 2026-04-29T22:49Z
TLE epoch observation values (Epoch: 2026-04-29T22:49:56.025Z)
Latitude
-0.00008°
Longitude
163.95196°
Altitude
471.632 km
Speed
7.631 km/s
True Right ascension
00h 17m 21s
True Declination
0° 00' 00"
Sunlit
Object was in daylight at epoch
Visualization orbit readout
Latitude
Unknown
Longitude
Unknown
Altitude
Unknown
Speed
Unknown
Apparent Right ascension
Unknown
Apparent Declination
Unknown
Sunlit
N/A
Visualization observer readout
Local Sidereal Time
22:56:01
Azimuth
Unknown
Elevation
Unknown
Doppler factor
Unknown
Orbital elements
Apogee altitude
471.971 km
Perigee altitude
470.044 km
Semi-major axis
6,849.145 km
Eccentricity
0.00014
Inclination
53.1632°
RAAN
4.3404°
Arg. of periapsis
88.9147°
True anomaly
271.18538°
Mean anomaly
271.2015°
Eccentric anomaly
271.19344°
Mean motion
3.82903 °/min
Orbital period
94.02 mins
BSTAR
0.00011818
Loading maneuver chart data...
Computing Atmospheric mass density...
Loading historical data...
Loading historical data...
Loading historical data...
Loading historical data...
Loading historical data...
Loading historical data...
Loading historical data...

Documentation

Showing up to 5 results
|